Location: Unspecified
(0.0000°N, 0.0000°E)
Time: 15:47:55
(UTC+00:00)

Courier 1B - Pass Details

Date: 12 February 2026
Orbit: 962 x 1208 km, 28.3° (Epoch: 16 March)

Event Time Altitude Azimuth Distance (km) Brightness Sun altitude
Exits shadow 05:04:12 17° 320° (NW) 2,482 9.1 -17.0°
Maximum altitude 05:09:41 50° 29° (NNE) 1,337 8.3 -15.7°
Drops below altitude 10° 05:16:18 10° 103° (ESE) 2,810 11.4 -14.1°
Sets 05:19:00 0° 108° (ESE) 3,730 12.6 -13.4°
